Weather History for KCDJ - November, 2012

Change the Weather History Date:

Wednesday, November 28, 2012

  Actual Average (KIRK) Record (KIRK)
Temperature  
Mean Temperature 34 °F 35 °F  
Max Temperature 50 °F 44 °F - ()
Min Temperature 19 °F 26 °F - ()
Degree Days  
Heating Degree Days 30 30  
Month to date heating degree days 673  
Since 1 July heating degree days 1162  
Cooling Degree Days 0 0  
Month to date cooling degree days 0  
Year to date cooling degree days 939  
Moisture  
Dew Point 23 °F    
Average Humidity 66    
Maximum Humidity 85    
Minimum Humidity 41    
Precipitation  
Precipitation 0.00 in 0.08 in - ()
Month to date precipitation 2.55  
Year to date precipitation 37.39  
Sea Level Pressure  
Sea Level Pressure 30.37 in    
Wind  
Wind Speed 2 mph (SSE)    
Max Wind Speed 8 mph    
Max Gust Speed -    
T = Trace of Precipitation, MM = Missing Value Source: NWS Daily Summary

Daily Weather History Graph

Daily Weather History Graph

Search for Another Location

Airport or City:

Trip Planner

Search our weather history database for the weather conditions in past years. The results will help you decide how hot, cold, wet, or windy it might be!

Date:

Astronomy

Nov. 28, 2012 Rise Set
Actual Time 7:13 AM CST 4:50 PM CST
Civil Twilight 6:44 AM CST 5:20 PM CST
Nautical Twilight 6:10 AM CST 5:53 PM CST
Astronomical Twilight 5:38 AM CST 6:26 PM CST
Moon 5:06 PM CST (11/28) 7:11 AM CST (11/28)
Length of Visible Light 10h 36m
Length of Day
9h 36m
Full, 100% of the Moon is Illuminated
Nov 28
Full
Dec 6
Last Quarter
Dec 13
New
Dec 19
First Quarter
Dec 28
Full

Hourly Weather History & Observations

Time (CST) Temp. Windchill Dew Point Humidity Pressure Visibility Wind Dir Wind Speed Gust Speed Precip Events Conditions
12:52 AM 25.0 °F - 17.1 °F 72% 30.37 in - Calm Calm - N/A   Unknown
1:52 AM 25.0 °F - 17.1 °F 72% 30.38 in - Calm Calm - N/A   Unknown
2:52 AM 24.1 °F - 18.0 °F 77% 30.40 in - Calm Calm - N/A   Unknown
3:52 AM 23.0 °F - 18.0 °F 81% 30.40 in - Calm Calm - N/A   Unknown
4:52 AM 21.0 °F - 16.0 °F 81% 30.41 in - Calm Calm - N/A   Unknown
5:52 AM 19.0 °F - 15.1 °F 85% 30.43 in - Calm Calm - N/A   Unknown
6:52 AM 19.0 °F - 15.1 °F 85% 30.44 in - Calm Calm - N/A   Unknown
7:52 AM 21.0 °F - 17.1 °F 85% 30.48 in - Calm Calm - N/A   Unknown
8:52 AM 32.0 °F - 21.9 °F 66% 30.47 in - Calm Calm - N/A   Unknown
9:52 AM 35.1 °F 31.0 °F 23.0 °F 61% 30.47 in - SE 4.6 mph - N/A   Unknown
10:52 AM 39.9 °F 36.7 °F 25.0 °F 55% 30.48 in - ESE 4.6 mph - N/A   Unknown
11:52 AM 43.0 °F 40.3 °F 26.1 °F 51% 30.44 in - Variable 4.6 mph - N/A   Unknown
12:52 PM 46.0 °F 44.8 °F 27.0 °F 47% 30.39 in - Variable 3.5 mph - N/A   Unknown
1:52 PM 48.9 °F - 26.1 °F 41% 30.36 in - North - - N/A   Unknown
2:52 PM 50.0 °F - 28.0 °F 43% 30.34 in - South 8.1 mph - N/A   Unknown
3:52 PM 48.9 °F - 28.0 °F 44% 30.33 in - SSW 6.9 mph - N/A   Unknown
4:52 PM 44.1 °F 41.5 °F 28.0 °F 53% 30.32 in - South 4.6 mph - N/A   Unknown
5:52 PM 37.0 °F - 26.1 °F 65% 30.32 in - Calm Calm - N/A   Unknown
6:52 PM 34.0 °F 31.0 °F 26.1 °F 73% 30.31 in - SE 3.5 mph - N/A   Unknown
7:52 PM 37.9 °F 34.4 °F 27.0 °F 65% 30.30 in - SSE 4.6 mph - N/A   Unknown
8:52 PM 37.0 °F 34.5 °F 27.0 °F 67% 30.29 in - South 3.5 mph - N/A   Unknown
9:52 PM 34.0 °F 31.0 °F 27.0 °F 75% 30.27 in - South 3.5 mph - N/A   Unknown
10:52 PM 37.9 °F 34.4 °F 27.0 °F 65% 30.24 in - SSE 4.6 mph - N/A   Unknown
11:52 PM 33.1 °F 30.0 °F 27.0 °F 78% 30.25 in - SSE 3.5 mph - N/A   Unknown